Back to catalog

COSMOS 2092

AliveNavigationPO
NORAD 20737·PAYLOAD·🇷🇺 Russia

Launched Aug 8, 1990 from Plesetsk Cosmodrome

Loading…

Next Passes (next 24 hours)

TLE

FreshSource: Space-Track

Epoch: Sep 14, 2026, 06:05 UTC

1 20737U 90070C   26257.25375545 -.00000002  00000-0 -67706-4 0  9997
2 20737  82.5637 248.7910 0003244 299.4919  71.6968 12.63351467664606

Track COSMOS 2092 in real time with AllMySat

Download on the App Store